Location: Demmingen
(48.6757°N, 10.4375°E)
Time: 02:31:18
(UTC+00:00)

SL-16 R/B - Pass Details

Date: 23 May 2024
Orbit: 985 x 1007 km, 99.7° (Epoch: 19 June)

Event Time Altitude Azimuth Distance (km) Brightness Sun altitude
Rises 01:47:29 0° 163° (SSE) 3,720 5.2 -12.8°
Reaches altitude 10° 01:49:56 10° 163° (SSE) 2,775 4.5 -12.5°
Maximum altitude 01:56:13 87° 254° (WSW) 1,016 2.6 -11.9°
Drops below altitude 10° 02:02:32 10° 343° (NNW) 2,794 5.4 -11.3°
Sets 02:05:01 0° 344° (NNW) 3,746 6.1 -11.0°
